| time (UTC) | temp F | wind direction | speed knots | gust knots | rain 1hr in | rain 24hr in | rain mn in | humidity % | barometer mb |
| 20260502130420 | 57 | 351 | 9.6 | 13.9 | 0.00 | 1.36 | 0.03 | 89 | 1018.6 |
| 20260502123402 | 55 | 343 | 7.0 | 9.6 | 0.00 | 1.36 | 0.03 | 94 | 1018.2 |
| 20260502122902 | 55 | 348 | 6.1 | 9.6 | 0.00 | 1.36 | 0.03 | 94 | 1018.1 |
| 20260502122402 | 55 | 351 | 6.1 | 8.7 | 0.00 | 1.36 | 0.03 | 94 | 1018.0 |
| 20260502121903 | 55 | 336 | 5.2 | 8.7 | 0.00 | 1.36 | 0.03 | 94 | 1018.0 |
| 20260502121402 | 55 | 340 | 5.2 | 7.8 | 0.00 | 1.36 | 0.03 | 94 | 1017.9 |
| 20260502120902 | 55 | 0 | 5.2 | 7.8 | 0.00 | 1.36 | 0.03 | 94 | 1017.8 |
| 20260502120403 | 55 | 344 | 5.2 | 8.7 | 0.00 | 1.36 | 0.03 | 93 | 1017.7 |
| 20260502120132 | 55 | 346 | 5.2 | 8.7 | 0.00 | 1.36 | 0.03 | 93 | 1017.5 |
| 20260502115624 | 55 | 347 | 5.2 | 7.8 | 0.00 | 1.36 | 0.03 | 93 | 1017.5 |
| 20260502114901 | 55 | 343 | 4.3 | 7.8 | 0.00 | 1.36 | 0.03 | 93 | 1017.4 |
| 20260502114401 | 55 | 342 | 4.3 | 8.7 | 0.00 | 1.36 | 0.03 | 93 | 1017.3 |
| 20260502113902 | 55 | 0 | 4.3 | 8.7 | 0.00 | 1.36 | 0.03 | 93 | 1017.4 |
| 20260502113401 | 55 | 340 | 4.3 | 7.0 | 0.00 | 1.36 | 0.03 | 92 | 1017.3 |
| 20260502112903 | 55 | 351 | 4.3 | 7.0 | 0.00 | 1.36 | 0.03 | 92 | 1017.2 |
| 20260502112402 | 55 | 351 | 5.2 | 9.6 | 0.00 | 1.36 | 0.03 | 92 | 1017.1 |
| 20260502111857 | 56 | 347 | 6.1 | 9.6 | 0.00 | 1.36 | 0.03 | 92 | 1016.9 |
| 20260502111351 | 56 | 346 | 6.1 | 8.7 | 0.00 | 1.36 | 0.03 | 92 | 1016.9 |
| 20260502111114 | 56 | 343 | 6.1 | 8.7 | 0.00 | 1.36 | 0.03 | 92 | 1016.8 |
| 20260502110340 | 56 | 343 | 5.2 | 7.8 | 0.00 | 1.36 | 0.03 | 92 | 1016.7 |
| 20260502105833 | 56 | 345 | 5.2 | 7.8 | 0.00 | 1.36 | 0.03 | 92 | 1016.6 |
| 20260502105331 | 56 | 9 | 5.2 | 8.7 | 0.00 | 1.36 | 0.03 | 92 | 1016.6 |
| 20260502104832 | 56 | 34 | 6.1 | 8.7 | 0.00 | 1.36 | 0.03 | 92 | 1016.4 |
| 20260502104331 | 56 | 14 | 6.1 | 10.4 | 0.00 | 1.36 | 0.03 | 92 | 1016.4 |
| 20260502104101 | 56 | 18 | 7.0 | 11.3 | 0.00 | 1.36 | 0.03 | 91 | 1016.5 |
| 20260502103332 | 56 | 11 | 7.8 | 11.3 | 0.00 | 1.36 | 0.03 | 91 | 1016.3 |
| 20260502102830 | 56 | 0 | 7.0 | 11.3 | 0.00 | 1.36 | 0.03 | 91 | 1016.2 |
| 20260502102330 | 56 | 5 | 6.1 | 11.3 | 0.00 | 1.36 | 0.03 | 91 | 1016.1 |
| 20260502102049 | 56 | 40 | 6.1 | 11.3 | 0.00 | 1.36 | 0.03 | 91 | 1016.0 |
| 20260502101331 | 57 | 30 | 7.8 | 11.3 | 0.00 | 1.36 | 0.03 | 91 | 1015.9 |
| 20260502101327 | 57 | 46 | 7.8 | 11.3 | 0.00 | 1.36 | 0.03 | 91 | 1015.8 |
| 20260502100334 | 57 | 14 | 7.8 | 11.3 | 0.00 | 1.36 | 0.03 | 92 | 1015.8 |
| 20260502091330 | 57 | 0 | 9.6 | 13.0 | 0.01 | 1.36 | 0.03 | 92 | 1015.6 |
| 20260502090830 | 57 | 0 | 7.8 | 12.2 | 0.01 | 1.36 | 0.03 | 93 | 1015.7 |
| 20260502090329 | 57 | 31 | 7.0 | 11.3 | 0.01 | 1.36 | 0.03 | 93 | 1015.5 |
| 20260502070829 | 57 | 14 | 11.3 | 15.6 | 0.01 | 1.35 | 0.02 | 92 | 1015.4 |
| 20260502070334 | 57 | 5 | 9.6 | 15.6 | 0.01 | 1.35 | 0.02 | 93 | 1015.4 |
| 20260502065829 | 57 | 0 | 9.6 | 16.5 | 0.01 | 1.35 | 0.02 | 93 | 1015.5 |
| 20260502065330 | 57 | 0 | 10.4 | 16.5 | 0.01 | 1.35 | 0.02 | 93 | 1015.4 |
| 20260502064829 | 57 | 15 | 10.4 | 14.8 | 0.01 | 1.35 | 0.02 | 93 | 1015.3 |
| 20260502064329 | 57 | 0 | 11.3 | 14.8 | 0.01 | 1.35 | 0.02 | 93 | 1015.2 |
| 20260502063828 | 57 | 15 | 10.4 | 14.8 | 0.01 | 1.35 | 0.01 | 93 | 1015.1 |
| 20260502063329 | 57 | 0 | 10.4 | 13.9 | 0.00 | 1.34 | 0.01 | 93 | 1015.1 |
| 20260502062829 | 57 | 355 | 10.4 | 15.6 | 0.01 | 1.34 | 0.01 | 93 | 1015.0 |
| 20260502062554 | 57 | 9 | 11.3 | 16.5 | 0.01 | 1.34 | 0.01 | 93 | 1014.9 |
| 20260502062100 | 57 | 19 | 12.2 | 17.4 | 0.01 | 1.34 | 0.01 | 93 | 1014.8 |
| 20260502061329 | 57 | 25 | 11.3 | 17.4 | 0.01 | 1.34 | 0.01 | 93 | 1014.7 |
| 20260502060829 | 57 | 22 | 11.3 | 17.4 | 0.01 | 1.34 | 0.01 | 94 | 1014.8 |
| 20260502060329 | 57 | 5 | 10.4 | 17.4 | 0.01 | 1.34 | 0.01 | 93 | 1014.7 |
| 20260502055830 | 57 | 36 | 9.6 | 14.8 | 0.01 | 1.34 | 0.01 | 94 | 1014.6 |
| 20260502055329 | 57 | 10 | 8.7 | 14.8 | 0.01 | 1.34 | 0.01 | 94 | 1014.5 |
| 20260502054832 | 57 | 24 | 8.7 | 14.8 | 0.01 | 1.34 | 0.01 | 94 | 1014.4 |
| 20260502054559 | 57 | 48 | 9.6 | 14.8 | 0.01 | 1.34 | 0.01 | 94 | 1014.3 |
| 20260502053831 | 58 | 37 | 9.6 | 13.9 | 0.02 | 1.34 | 0.01 | 94 | 1014.2 |
| 20260502053332 | 58 | 19 | 9.6 | 15.6 | 0.02 | 1.34 | 0.01 | 94 | 1014.2 |
| 20260502052831 | 58 | 19 | 10.4 | 16.5 | 0.01 | 1.33 | 0.00 | 94 | 1014.2 |
| 20260502052332 | 58 | 355 | 11.3 | 16.5 | 0.01 | 1.33 | 0.00 | 94 | 1014.2 |
| 20260502051830 | 58 | 9 | 12.2 | 19.1 | 0.01 | 1.33 | 0.00 | 94 | 1014.3 |
| 20260502051330 | 58 | 11 | 11.3 | 19.1 | 0.01 | 1.33 | 0.00 | 94 | 1014.2 |
| 20260502050829 | 58 | 0 | 9.6 | 13.9 | 0.01 | 1.33 | 0.00 | 94 | 1014.3 |
| 20260502050330 | 58 | 22 | 11.3 | 18.2 | 0.01 | 1.33 | 0.00 | 94 | 1014.3 |
| 20260502045829 | 58 | 348 | 13.0 | 20.9 | 0.02 | 1.33 | 1.33 | 93 | 1014.1 |
| 20260502045329 | 58 | 9 | 13.0 | 20.9 | 0.02 | 1.33 | 1.33 | 93 | 1014.0 |
| 20260502044829 | 58 | 17 | 13.9 | 19.1 | 0.02 | 1.33 | 1.33 | 94 | 1014.0 |
| 20260502044337 | 58 | 344 | 13.9 | 21.7 | 0.01 | 1.32 | 1.32 | 94 | 1014.0 |
| 20260502044329 | 58 | 9 | 13.9 | 21.7 | 0.02 | 1.33 | 1.33 | 94 | 1014.0 |
| 20260502043329 | 58 | 5 | 13.0 | 19.1 | 0.01 | 1.32 | 1.32 | 94 | 1014.0 |
| 20260502042829 | 59 | 355 | 13.0 | 20.9 | 0.01 | 1.32 | 1.32 | 94 | 1013.9 |
| 20260502042329 | 59 | 355 | 14.8 | 20.9 | 0.02 | 1.32 | 1.32 | 94 | 1013.9 |
| 20260502041829 | 59 | 26 | 13.9 | 20.0 | 0.02 | 1.32 | 1.32 | 94 | 1013.8 |
| 20260502041330 | 59 | 22 | 11.3 | 20.0 | 0.02 | 1.32 | 1.32 | 94 | 1013.9 |
| 20260502040832 | 60 | 25 | 10.4 | 13.9 | 0.02 | 1.32 | 1.32 | 95 | 1013.7 |
| 20260502040331 | 60 | 15 | 10.4 | 16.5 | 0.02 | 1.32 | 1.31 | 95 | 1013.7 |
| 20260502040057 | 60 | 5 | 11.3 | 16.5 | 0.02 | 1.31 | 1.31 | 95 | 1013.6 |
| 20260502035331 | 60 | 5 | 9.6 | 16.5 | 0.02 | 1.31 | 1.31 | 95 | 1013.7 |
| 20260502034832 | 60 | 355 | 10.4 | 14.8 | 0.02 | 1.31 | 1.31 | 95 | 1013.8 |
| 20260502034331 | 60 | 24 | 11.3 | 14.8 | 0.02 | 1.31 | 1.31 | 95 | 1013.8 |
| 20260502033832 | 59 | 355 | 11.3 | 17.4 | 0.02 | 1.31 | 1.31 | 95 | 1013.8 |
| 20260502033332 | 60 | 13 | 12.2 | 18.2 | 0.03 | 1.31 | 1.31 | 95 | 1013.8 |
| 20260502032831 | 59 | 26 | 11.3 | 18.2 | 0.03 | 1.31 | 1.31 | 95 | 1013.6 |
| 20260502032601 | 60 | 21 | 10.4 | 16.5 | 0.02 | 1.30 | 1.30 | 95 | 1013.5 |
| 20260502031832 | 60 | 350 | 10.4 | 13.9 | 0.02 | 1.30 | 1.30 | 95 | 1013.3 |
| 20260502031335 | 60 | 355 | 9.6 | 13.9 | 0.02 | 1.30 | 1.30 | 96 | 1013.1 |
| 20260502030834 | 60 | 30 | 10.4 | 16.5 | 0.03 | 1.30 | 1.30 | 96 | 1013.0 |
| 20260502030335 | 60 | 44 | 10.4 | 16.5 | 0.03 | 1.30 | 1.30 | 96 | 1012.9 |
| 20260502030104 | 60 | 49 | 8.7 | 14.8 | 0.02 | 1.29 | 1.29 | 96 | 1012.6 |
| 20260502025331 | 60 | 5 | 8.7 | 13.9 | 0.03 | 1.29 | 1.29 | 96 | 1012.6 |
| 20260502024829 | 60 | 350 | 9.6 | 13.0 | 0.03 | 1.29 | 1.29 | 96 | 1012.6 |
| 20260502024329 | 60 | 5 | 8.7 | 12.2 | 0.03 | 1.29 | 1.29 | 96 | 1012.5 |
| 20260502023829 | 60 | 26 | 7.8 | 12.2 | 0.04 | 1.29 | 1.29 | 96 | 1012.5 |
| 20260502023329 | 60 | 26 | 8.7 | 13.9 | 0.03 | 1.28 | 1.28 | 96 | 1012.4 |
| 20260502022829 | 60 | 21 | 8.7 | 13.9 | 0.03 | 1.28 | 1.28 | 96 | 1012.4 |
| 20260502022329 | 60 | 27 | 8.7 | 13.9 | 0.03 | 1.28 | 1.28 | 96 | 1012.3 |
| 20260502022054 | 60 | 17 | 9.6 | 15.6 | 0.04 | 1.28 | 1.28 | 96 | 1012.2 |
| 20260502021823 | 60 | 39 | 8.7 | 14.8 | 0.03 | 1.27 | 1.27 | 96 | 1011.8 |
| 20260502021536 | 60 | 34 | 9.6 | 15.6 | 0.04 | 1.28 | 1.27 | 96 | 1012.3 |
| 20260502020329 | 60 | 65 | 7.8 | 13.0 | 0.04 | 1.27 | 1.27 | 96 | 1011.7 |
| 20260502015830 | 60 | 15 | 7.8 | 15.6 | 0.04 | 1.27 | 1.27 | 96 | 1011.9 |
| 20260502015329 | 60 | 36 | 8.7 | 15.6 | 0.03 | 1.26 | 1.26 | 96 | 1011.6 |
| 20260502014835 | 60 | 53 | 8.7 | 14.8 | 0.04 | 1.26 | 1.26 | 96 | 1011.6 |
| 20260502014335 | 60 | 30 | 9.6 | 14.8 | 0.04 | 1.27 | 1.26 | 96 | 1011.5 |
| 20260502013835 | 60 | 32 | 10.4 | 14.8 | 0.04 | 1.27 | 1.25 | 96 | 1011.6 |
| 20260502013325 | 60 | 5 | 10.4 | 14.8 | 0.04 | 1.30 | 1.25 | 96 | 1011.6 |
| 20260502012819 | 60 | 0 | 10.4 | 15.6 | 0.04 | 1.37 | 1.25 | 96 | 1011.1 |
| 20260502012312 | 61 | 47 | 12.2 | 17.4 | 0.05 | 1.38 | 1.24 | 96 | 1011.2 |
| 20260502011811 | 61 | 5 | 11.3 | 17.4 | 0.04 | 1.37 | 1.24 | 96 | 1011.5 |
| 20260502011303 | 61 | 30 | 10.4 | 14.8 | 0.05 | 1.40 | 1.24 | 96 | 1011.7 |
| 20260502011037 | 61 | 326 | 11.3 | 15.6 | 0.05 | 1.40 | 1.23 | 96 | 1011.8 |
| 20260502010303 | 61 | 344 | 10.4 | 15.6 | 0.05 | 1.39 | 1.23 | 96 | 1011.9 |
| 20260502005804 | 61 | 351 | 10.4 | 15.6 | 0.05 | 1.39 | 1.23 | 96 | 1011.7 |
| 20260502005306 | 61 | 355 | 12.2 | 15.6 | 0.05 | 1.38 | 1.22 | 96 | 1011.5 |
| 20260502004804 | 61 | 355 | 13.9 | 20.0 | 0.05 | 1.38 | 1.22 | 96 | 1011.1 |
| 20260502004303 | 61 | 5 | 13.0 | 20.0 | 0.06 | 1.38 | 1.22 | 96 | 1010.7 |
| 20260502003803 | 61 | 333 | 11.3 | 17.4 | 0.05 | 1.37 | 1.21 | 96 | 1010.5 |
| 20260502003755 | 61 | 337 | 10.4 | 16.5 | 0.06 | 1.37 | 1.21 | 96 | 1010.5 |
| 20260502002804 | 61 | 355 | 11.3 | 16.5 | 0.06 | 1.37 | 1.20 | 96 | 1010.5 |
| 20260502002305 | 61 | 355 | 12.2 | 18.2 | 0.06 | 1.36 | 1.20 | 96 | 1010.2 |
| 20260502001803 | 61 | 9 | 13.0 | 18.2 | 0.06 | 1.36 | 1.20 | 96 | 1010.1 |
| 20260502001308 | 61 | 24 | 13.0 | 20.0 | 0.05 | 1.35 | 1.19 | 96 | 1010.3 |
| 20260502000809 | 62 | 28 | 13.0 | 20.0 | 0.06 | 1.35 | 1.19 | 96 | 1010.2 |
| 20260502000310 | 62 | 11 | 13.0 | 20.0 | 0.05 | 1.34 | 1.18 | 96 | 1010.1 |
| 20260501235806 | 62 | 14 | 13.0 | 18.2 | 0.06 | 1.34 | 1.18 | 96 | 1010.1 |
| 20260501235531 | 62 | 355 | 13.9 | 18.2 | 0.05 | 1.33 | 1.17 | 96 | 1010.2 |
| 20260501234801 | 62 | 9 | 14.8 | 20.9 | 0.06 | 1.33 | 1.17 | 96 | 1010.3 |
| 20260501234301 | 62 | 355 | 13.9 | 20.9 | 0.05 | 1.32 | 1.16 | 96 | 1009.9 |
| 20260501234030 | 62 | 338 | 13.0 | 20.9 | 0.06 | 1.32 | 1.15 | 96 | 1010.2 |
| 20260501233301 | 63 | 330 | 12.2 | 17.4 | 0.06 | 1.31 | 1.15 | 96 | 1010.3 |
| 20260501233028 | 62 | 338 | 11.3 | 17.4 | 0.05 | 1.30 | 1.14 | 96 | 1009.9 |
| 20260501232305 | 63 | 0 | 9.6 | 14.8 | 0.06 | 1.30 | 1.14 | 96 | 1008.9 |
| 20260501231801 | 63 | 14 | 8.7 | 14.8 | 0.07 | 1.30 | 1.14 | 96 | 1008.0 |
| 20260501231526 | 63 | 40 | 7.8 | 13.0 | 0.08 | 1.30 | 1.13 | 97 | 1007.6 |
| 20260501230801 | 63 | 38 | 8.7 | 13.9 | 0.08 | 1.29 | 1.13 | 97 | 1007.6 |
| 20260501230301 | 63 | 35 | 9.6 | 13.9 | 0.09 | 1.29 | 1.13 | 97 | 1007.3 |
| 20260501225801 | 64 | 5 | 8.7 | 13.0 | 0.09 | 1.28 | 1.12 | 97 | 1007.3 |
| 20260501225301 | 64 | 23 | 8.7 | 14.8 | 0.10 | 1.28 | 1.12 | 97 | 1007.3 |
| 20260501224800 | 64 | 15 | 9.6 | 16.5 | 0.10 | 1.27 | 1.11 | 97 | 1007.1 |
| 20260501224301 | 64 | 13 | 9.6 | 16.5 | 0.12 | 1.27 | 1.11 | 97 | 1007.2 |
| 20260501223801 | 64 | 32 | 9.6 | 14.8 | 0.12 | 1.26 | 1.10 | 97 | 1007.6 |
| 20260501223301 | 64 | 49 | 9.6 | 16.5 | 0.13 | 1.25 | 1.09 | 97 | 1007.6 |
| 20260501222801 | 64 | 54 | 9.6 | 16.5 | 0.14 | 1.25 | 1.09 | 97 | 1007.9 |
| 20260501222301 | 64 | 18 | 7.8 | 14.8 | 0.15 | 1.24 | 1.08 | 97 | 1008.1 |
| 20260501221801 | 64 | 41 | 8.7 | 13.9 | 0.16 | 1.23 | 1.07 | 97 | 1008.3 |
| 20260501221301 | 64 | 43 | 9.6 | 13.9 | 0.18 | 1.22 | 1.06 | 97 | 1008.0 |
| 20260501220801 | 64 | 35 | 8.7 | 13.9 | 0.19 | 1.21 | 1.05 | 97 | 1007.9 |
| 20260501220301 | 64 | 24 | 7.0 | 13.9 | 0.21 | 1.20 | 1.04 | 97 | 1008.0 |
| 20260501215801 | 64 | 33 | 7.0 | 12.2 | 0.24 | 1.19 | 1.03 | 97 | 1008.2 |
| 20260501215528 | 64 | 14 | 6.1 | 10.4 | 0.27 | 1.18 | 1.02 | 97 | 1008.7 |
| 20260501214801 | 64 | 26 | 5.2 | 10.4 | 0.30 | 1.17 | 1.00 | 97 | 1008.8 |
| 20260501214301 | 64 | 34 | 7.0 | 12.2 | 0.32 | 1.15 | 0.99 | 97 | 1008.9 |
| 20260501213801 | 64 | 0 | 8.7 | 14.8 | 0.36 | 1.14 | 0.97 | 97 | 1008.6 |
| 20260501213535 | 64 | 45 | 8.7 | 14.8 | 0.39 | 1.12 | 0.96 | 97 | 1008.6 |
| 20260501212801 | 64 | 13 | 8.7 | 15.6 | 0.45 | 1.11 | 0.94 | 97 | 1008.6 |
| 20260501212301 | 64 | 26 | 8.7 | 15.6 | 0.49 | 1.09 | 0.92 | 97 | 1008.6 |
| 20260501211801 | 64 | 81 | 10.4 | 14.8 | 0.53 | 1.07 | 0.90 | 97 | 1008.2 |
| 20260501211300 | 64 | 26 | 9.6 | 14.8 | 0.55 | 1.04 | 0.88 | 97 | 1008.6 |
| 20260501210800 | 64 | 18 | 9.6 | 13.9 | 0.57 | 1.02 | 0.85 | 97 | 1008.5 |
| 20260501210301 | 64 | 355 | 9.6 | 15.6 | 0.59 | 0.98 | 0.82 | 97 | 1008.7 |
| 20260501205801 | 64 | 0 | 11.3 | 20.0 | 0.58 | 0.95 | 0.78 | 97 | 1008.6 |
| 20260501205300 | 64 | 16 | 12.2 | 20.0 | 0.54 | 0.91 | 0.75 | 97 | 1008.1 |
| 20260501204801 | 64 | 18 | 13.9 | 20.9 | 0.51 | 0.87 | 0.71 | 97 | 1008.0 |
| 20260501204301 | 64 | 5 | 13.0 | 20.9 | 0.47 | 0.83 | 0.66 | 97 | 1007.4 |
| 20260501203801 | 64 | 342 | 9.6 | 19.1 | 0.42 | 0.78 | 0.61 | 96 | 1007.9 |
| 20260501203301 | 64 | 34 | 8.7 | 15.6 | 0.37 | 0.73 | 0.55 | 97 | 1007.6 |
| 20260501202801 | 64 | 79 | 8.7 | 14.8 | 0.30 | 0.66 | 0.49 | 96 | 1006.4 |
| 20260501202301 | 64 | 59 | 7.0 | 13.9 | 0.24 | 0.60 | 0.42 | 96 | 1007.8 |
| 20260501201801 | 64 | 9 | 6.1 | 13.0 | 0.18 | 0.54 | 0.36 | 96 | 1009.7 |
| 20260501201300 | 64 | 324 | 7.8 | 13.9 | 0.13 | 0.49 | 0.32 | 96 | 1010.3 |
| 20260501200801 | 64 | 19 | 7.0 | 13.9 | 0.09 | 0.45 | 0.28 | 96 | 1007.9 |
| 20260501200301 | 64 | 46 | 5.2 | 11.3 | 0.03 | 0.39 | 0.22 | 96 | 1006.4 |
| 20260501195801 | 64 | 69 | 5.2 | 14.8 | 0.01 | 0.37 | 0.21 | 96 | 1006.3 |
| 20260501195301 | 65 | 26 | 6.1 | 16.5 | 0.01 | 0.37 | 0.21 | 96 | 1006.3 |
| 20260501194800 | 65 | 24 | 5.2 | 16.5 | 0.00 | 0.36 | 0.20 | 96 | 1005.6 |
| 20260501194301 | 65 | 43 | 5.2 | 11.3 | 0.01 | 0.36 | 0.20 | 96 | 1005.4 |
| 20260501194034 | 65 | 105 | 5.2 | 12.2 | 0.02 | 0.36 | 0.20 | 96 | 1004.8 |
| 20260501193301 | 65 | 87 | 6.1 | 14.8 | 0.03 | 0.36 | 0.20 | 96 | 1005.8 |
| 20260501192801 | 65 | 50 | 7.0 | 14.8 | 0.03 | 0.36 | 0.20 | 96 | 1006.4 |
| 20260501192534 | 65 | 61 | 7.8 | 15.6 | 0.03 | 0.36 | 0.20 | 96 | 1006.8 |
| 20260501191800 | 65 | 28 | 7.8 | 15.6 | 0.03 | 0.36 | 0.20 | 96 | 1007.1 |
| 20260501191301 | 65 | 52 | 6.1 | 11.3 | 0.03 | 0.36 | 0.20 | 96 | 1006.9 |
| 20260501190800 | 65 | 29 | 6.1 | 12.2 | 0.03 | 0.36 | 0.20 | 96 | 1006.9 |
| 20260501190300 | 65 | 38 | 6.1 | 12.2 | 0.03 | 0.36 | 0.20 | 96 | 1007.5 |
| 20260501185800 | 65 | 26 | 4.3 | 11.3 | 0.03 | 0.36 | 0.20 | 96 | 1007.7 |
| 20260501185301 | 65 | 88 | 5.2 | 12.2 | 0.03 | 0.36 | 0.20 | 96 | 1008.1 |
| 20260501184801 | 65 | 59 | 7.0 | 12.2 | 0.03 | 0.36 | 0.20 | 96 | 1008.2 |
| 20260501184300 | 65 | 19 | 8.7 | 11.3 | 0.02 | 0.35 | 0.19 | 96 | 1008.3 |
| 20260501183800 | 65 | 5 | 8.7 | 12.2 | 0.01 | 0.34 | 0.17 | 96 | 1008.6 |
| 20260501183301 | 65 | 355 | 7.8 | 12.2 | 0.00 | 0.33 | 0.17 | 96 | 1008.7 |
| 20260501182801 | 65 | 0 | 6.1 | 11.3 | 0.00 | 0.33 | 0.17 | 96 | 1008.6 |
| 20260501182301 | 65 | 13 | 5.2 | 11.3 | 0.00 | 0.33 | 0.17 | 96 | 1008.3 |
| 20260501181801 | 65 | 51 | 6.1 | 11.3 | 0.00 | 0.33 | 0.17 | 96 | 1008.3 |
| 20260501181301 | 65 | 63 | 5.2 | 11.3 | 0.00 | 0.33 | 0.17 | 96 | 1008.3 |
| 20260501180801 | 65 | 55 | 4.3 | 9.6 | 0.02 | 0.33 | 0.17 | 96 | 1008.2 |
| 20260501180304 | 65 | 35 | 5.2 | 10.4 | 0.04 | 0.33 | 0.17 | 96 | 1008.0 |
| 20260501175803 | 65 | 72 | 5.2 | 10.4 | 0.05 | 0.33 | 0.17 | 96 | 1008.1 |
| 20260501175307 | 65 | 34 | 6.1 | 10.4 | 0.08 | 0.33 | 0.17 | 96 | 1008.2 |
| 20260501174804 | 65 | 61 | 7.0 | 12.2 | 0.09 | 0.33 | 0.17 | 96 | 1008.2 |
| 20260501174301 | 64 | 27 | 6.1 | 12.2 | 0.13 | 0.33 | 0.17 | 96 | 1008.1 |
| 20260501173801 | 65 | 63 | 5.2 | 9.6 | 0.14 | 0.33 | 0.17 | 96 | 1008.2 |
| 20260501173302 | 65 | 42 | 5.2 | 12.2 | 0.15 | 0.33 | 0.17 | 96 | 1008.5 |
| 20260501172801 | 64 | 38 | 5.2 | 12.2 | 0.17 | 0.33 | 0.17 | 96 | 1008.8 |
| 20260501172525 | 65 | 84 | 4.3 | 11.3 | 0.17 | 0.33 | 0.17 | 96 | 1008.8 |
| 20260501171801 | 64 | 38 | 3.5 | 9.6 | 0.17 | 0.33 | 0.17 | 96 | 1008.8 |
| 20260501171301 | 64 | 61 | 3.5 | 9.6 | 0.17 | 0.33 | 0.17 | 95 | 1008.9 |
| 20260501170801 | 64 | 28 | 5.2 | 11.3 | 0.15 | 0.31 | 0.14 | 95 | 1009.2 |
| 20260501170301 | 64 | 56 | 7.0 | 13.9 | 0.13 | 0.29 | 0.12 | 95 | 1009.6 |
| 20260501165801 | 64 | 50 | 7.0 | 13.9 | 0.12 | 0.28 | 0.11 | 94 | 1009.8 |
| 20260501165305 | 65 | 46 | 6.1 | 13.9 | 0.09 | 0.25 | 0.09 | 94 | 1009.5 |
| 20260501164801 | 65 | 30 | 8.7 | 14.8 | 0.08 | 0.24 | 0.07 | 94 | 1009.8 |
| 20260501164532 | 65 | 42 | 10.4 | 14.8 | 0.04 | 0.20 | 0.04 | 93 | 1009.9 |
| 20260501163801 | 65 | 344 | 11.3 | 16.5 | 0.03 | 0.19 | 0.02 | 93 | 1010.0 |
| 20260501163306 | 66 | 32 | 11.3 | 16.5 | 0.02 | 0.18 | 0.02 | 92 | 1009.8 |
| 20260501162801 | 66 | 15 | 12.2 | 23.5 | 0.00 | 0.16 | 0.00 | 91 | 1009.5 |
| 20260501162301 | 67 | 34 | 15.6 | 24.3 | 0.00 | 0.16 | 0.00 | 91 | 1009.5 |
| 20260501161801 | 67 | 0 | 16.5 | 24.3 | 0.00 | 0.16 | 0.00 | 90 | 1009.9 |
| 20260501161302 | 68 | 355 | 13.9 | 20.0 | 0.00 | 0.16 | 0.00 | 90 | 1010.1 |
| 20260501160801 | 69 | 0 | 11.3 | 19.1 | 0.00 | 0.16 | 0.00 | 90 | 1010.1 |
| 20260501160302 | 69 | 336 | 7.8 | 13.0 | 0.00 | 0.16 | 0.00 | 90 | 1009.9 |
| 20260501160037 | 69 | 26 | 7.0 | 12.2 | 0.00 | 0.16 | 0.00 | 89 | 1009.8 |
| 20260501155301 | 69 | 16 | 6.1 | 12.2 | 0.00 | 0.16 | 0.00 | 90 | 1009.3 |
| 20260501155025 | 70 | 37 | 5.2 | 12.2 | 0.00 | 0.16 | 0.00 | 90 | 1009.0 |
| 20260501154301 | 70 | 58 | 3.5 | 10.4 | 0.00 | 0.16 | 0.00 | 90 | 1009.1 |
| 20260501154035 | 70 | 77 | 3.5 | 9.6 | 0.00 | 0.16 | 0.00 | 89 | 1008.9 |
| 20260501153302 | 70 | 33 | 3.5 | 9.6 | 0.00 | 0.16 | 0.00 | 90 | 1009.0 |
| 20260501153037 | 70 | 86 | 4.3 | 11.3 | 0.00 | 0.16 | 0.00 | 90 | 1008.9 |
| 20260501152531 | 70 | 55 | 6.1 | 12.2 | 0.00 | 0.16 | 0.00 | 89 | 1009.0 |
| 20260501152511 | 70 | 28 | 5.2 | 12.2 | 0.00 | 0.16 | 0.00 | 89 | 1008.9 |
| 20260501151306 | 70 | 65 | 5.2 | 12.2 | 0.00 | 0.16 | 0.00 | 89 | 1009.0 |
| 20260501150806 | 71 | 87 | 4.3 | 12.2 | 0.00 | 0.16 | 0.00 | 89 | 1008.7 |
| 20260501150301 | 71 | 78 | 4.3 | 11.3 | 0.00 | 0.16 | 0.00 | 90 | 1008.8 |
| 20260501145801 | 70 | 123 | 6.1 | 14.8 | 0.00 | 0.16 | 0.00 | 90 | 1008.9 |
| 20260501145301 | 70 | 34 | 6.1 | 14.8 | 0.00 | 0.16 | 0.00 | 90 | 1008.9 |
| 20260501144801 | 70 | 50 | 5.2 | 12.2 | 0.00 | 0.16 | 0.00 | 90 | 1009.0 |
| 20260501144301 | 70 | 62 | 7.0 | 13.0 | 0.00 | 0.16 | 0.00 | 91 | 1009.1 |